Location: Lecco
(45.8566°N, 9.3977°E)
Time: 13:18:49
(UTC+02:00)

Explorer 11/Cluster Stage 4 - Pass Details

Date: 20 August 2020
Orbit: 467 x 1258 km, 28.8° (Epoch: 24 September)

Event Time Altitude Azimuth Distance (km) Brightness Sun altitude
Rises 22:45:48 0° 246° (WSW) 3,719 10.3 -21.8°
Reaches altitude 10° 22:49:22 10° 228° (SW) 2,910 9.5 -22.3°
Enters shadow 22:53:12 17° 196° (SSW) 2,537 8.9 -22.7°
Maximum altitude 22:53:49 17° 190° (S) 2,543 - -22.8°
Drops below altitude 10° 22:58:36 10° 153° (SSE) 3,160 - -23.3°
Sets 23:02:44 0° 135° (SE) 4,179 - -23.8°
